Location: Bonac
(42.8765°N, 0.9753°E)
Time: 11:13:47
(UTC+00:00)

Okean 2 - Pass Details

Date: 12 January 2026
Orbit: 515 x 525 km, 82.5° (Epoch: 11 February)

Event Time Altitude Azimuth Distance (km) Brightness Sun altitude
Rises 18:56:11 0° 198° (SSW) 2,643 7.1 -23.7°
Reaches altitude 10° 18:58:21 10° 204° (SSW) 1,757 6.2 -24.1°
Maximum altitude 19:02:07 51° 281° (W) 662 4.0 -24.8°
Enters shadow 19:02:47 45° 317° (NW) 725 4.1 -24.9°
